DAL0056 LXGB-LPMA

Flight info

Callsign DAL0056
Flight time 1h 58m
Altitude 38000
Route LINTO UN10 TNR UN726 BAMBA N726 ORTOP DCT NARTA/N0451F390 DCT RULET DCT RAKUN
Aircraft B738/M-SDE2E3FGHIRWXY/LB1

Departure

Time 2026-05-04 03:53
Airport Gibraltar Airport (LXGB)

Arrival

Time 2026-05-04 05:51
Airport Cristiano Ronaldo International Airport (LPMA)
Time Latitude Longitude Altitude Speed Heading
2026-05-04 03:35 36.15307 -5.34577 17 ft 0 kts 357°
2026-05-04 03:46 36.15296 -5.34576 18 ft 3 kts 357°
2026-05-04 03:46 36.15276 -5.34575 18 ft 3 kts 357°
2026-05-04 03:46 36.15255 -5.34573 18 ft 3 kts 334°
2026-05-04 03:46 36.15241 -5.34557 18 ft 3 kts 291°
2026-05-04 03:47 36.15235 -5.34532 18 ft 3 kts 280°
2026-05-04 03:47 36.15232 -5.34508 18 ft 1 kts 274°
2026-05-04 03:48 36.15233 -5.34516 18 ft 3 kts 274°
2026-05-04 03:48 36.15233 -5.34559 19 ft 4 kts 268°
2026-05-04 03:48 36.15232 -5.34594 19 ft 5 kts 266°
2026-05-04 03:48 36.15229 -5.34646 21 ft 5 kts 264°
2026-05-04 03:49 36.15218 -5.34664 21 ft 1 kts 216°
2026-05-04 03:49 36.15208 -5.34667 23 ft 4 kts 192°
2026-05-04 03:49 36.15147 -5.34697 22 ft 15 kts 227°
2026-05-04 03:49 36.15125 -5.34852 23 ft 19 kts 268°
2026-05-04 03:50 36.15120 -5.35009 24 ft 18 kts 267°
2026-05-04 03:50 36.15115 -5.35163 26 ft 18 kts 267°
2026-05-04 03:50 36.15109 -5.35315 24 ft 18 kts 270°
2026-05-04 03:50 36.15106 -5.35468 22 ft 18 kts 268°
2026-05-04 03:51 36.15099 -5.35629 20 ft 20 kts 267°
2026-05-04 03:51 36.15095 -5.35776 18 ft 15 kts 268°
2026-05-04 03:51 36.15065 -5.35893 18 ft 14 kts 250°
2026-05-04 03:51 36.15092 -5.35939 17 ft 2 kts 32°
2026-05-04 03:52 36.15093 -5.35922 17 ft 0 kts 82°
2026-05-04 03:52 36.15097 -5.35870 18 ft 32 kts 85°
2026-05-04 03:53 36.15116 -5.35148 24 ft 131 kts 88°
2026-05-04 03:53 36.15114 -5.33791 500 ft 159 kts 94°
2026-05-04 03:53 36.15031 -5.32494 1733 ft 145 kts 98°
2026-05-04 03:53 36.14877 -5.31284 2749 ft 143 kts 108°
2026-05-04 03:54 36.14282 -5.30267 3000 ft 156 kts 162°
2026-05-04 03:54 36.13218 -5.30116 3210 ft 161 kts 204°
2026-05-04 03:54 36.12344 -5.30980 3417 ft 170 kts 243°
2026-05-04 03:54 36.11736 -5.32339 3561 ft 190 kts 244°
2026-05-04 03:55 36.11073 -5.33857 3704 ft 211 kts 243°
2026-05-04 03:55 36.10330 -5.35544 3900 ft 237 kts 243°
2026-05-04 03:55 36.09513 -5.37387 4560 ft 250 kts 243°
2026-05-04 03:55 36.08665 -5.39283 5410 ft 253 kts 242°
2026-05-04 03:56 36.07802 -5.41199 6314 ft 257 kts 241°
2026-05-04 03:56 36.06932 -5.43140 7208 ft 260 kts 241°
2026-05-04 03:56 36.06053 -5.45109 8072 ft 263 kts 241°
2026-05-04 03:56 36.05161 -5.47089 8919 ft 265 kts 240°
2026-05-04 03:57 36.04256 -5.49091 9732 ft 269 kts 241°
2026-05-04 03:57 36.03340 -5.51126 10444 ft 277 kts 241°
2026-05-04 03:57 36.02368 -5.53291 10695 ft 300 kts 241°
2026-05-04 03:57 36.01336 -5.55596 11193 ft 311 kts 241°
2026-05-04 03:58 35.99217 -5.60311 12789 ft 315 kts 241°
2026-05-04 03:58 35.98151 -5.62686 13579 ft 317 kts 240°
2026-05-04 03:58 35.97072 -5.65069 14327 ft 319 kts 240°
2026-05-04 03:59 35.95985 -5.67465 15076 ft 321 kts 240°
2026-05-04 03:59 35.94895 -5.69873 15798 ft 323 kts 240°
2026-05-04 03:59 35.93795 -5.72303 16499 ft 325 kts 240°
2026-05-04 03:59 35.92686 -5.74752 17184 ft 328 kts 240°
2026-05-04 04:00 35.91571 -5.77217 17841 ft 330 kts 240°
2026-05-04 04:00 35.90449 -5.79694 18486 ft 332 kts 240°
2026-05-04 04:00 35.89317 -5.82189 19114 ft 335 kts 240°
2026-05-04 04:00 35.88176 -5.84705 19709 ft 337 kts 240°
2026-05-04 04:01 35.87026 -5.87239 20310 ft 339 kts 239°
2026-05-04 04:01 35.85648 -5.89607 20841 ft 342 kts 229°
2026-05-04 04:01 35.83855 -5.91558 21381 ft 348 kts 217°
2026-05-04 04:01 35.81708 -5.92986 21918 ft 355 kts 206°
2026-05-04 04:02 35.79447 -5.94210 22424 ft 354 kts 216°
2026-05-04 04:02 35.77662 -5.96249 22890 ft 351 kts 234°
2026-05-04 04:02 35.76494 -5.98895 23379 ft 354 kts 248°
2026-05-04 04:02 35.75909 -6.01860 23840 ft 361 kts 261°
2026-05-04 04:03 35.75953 -6.04935 24282 ft 369 kts 274°
2026-05-04 04:03 35.76497 -6.08088 24721 ft 374 kts 277°
2026-05-04 04:03 35.77083 -6.11218 25183 ft 376 kts 277°
2026-05-04 04:03 35.77674 -6.14308 25639 ft 377 kts 277°
2026-05-04 04:04 35.78282 -6.17454 26098 ft 379 kts 277°
2026-05-04 04:04 35.78892 -6.20615 26554 ft 380 kts 277°
2026-05-04 04:04 35.79497 -6.23784 26987 ft 381 kts 277°
2026-05-04 04:04 35.80098 -6.26964 27413 ft 382 kts 277°
2026-05-04 04:05 35.80697 -6.30162 27844 ft 383 kts 277°
2026-05-04 04:05 35.81280 -6.33360 28245 ft 384 kts 277°
2026-05-04 04:05 35.81853 -6.36582 28627 ft 385 kts 276°
2026-05-04 04:05 35.82419 -6.39815 29010 ft 386 kts 276°
2026-05-04 04:06 35.82984 -6.43060 29365 ft 388 kts 276°
2026-05-04 04:06 35.83561 -6.46312 29720 ft 390 kts 277°
2026-05-04 04:06 35.84201 -6.49563 30065 ft 392 kts 278°
2026-05-04 04:06 35.84891 -6.52818 30381 ft 394 kts 279°
2026-05-04 04:07 35.85605 -6.56088 30684 ft 396 kts 279°
2026-05-04 04:07 35.86324 -6.59370 30995 ft 398 kts 279°
2026-05-04 04:07 35.87038 -6.62660 31395 ft 397 kts 279°
2026-05-04 04:07 35.87742 -6.65946 31855 ft 395 kts 279°
2026-05-04 04:08 35.88432 -6.69215 32292 ft 393 kts 279°
2026-05-04 04:08 35.89113 -6.72476 32707 ft 392 kts 278°
2026-05-04 04:08 35.89786 -6.75727 33143 ft 391 kts 278°
2026-05-04 04:08 35.90457 -6.78973 33580 ft 390 kts 278°
2026-05-04 04:09 35.91127 -6.82199 34024 ft 388 kts 278°
2026-05-04 04:09 35.91796 -6.85414 34439 ft 386 kts 278°
2026-05-04 04:09 35.92460 -6.88612 34823 ft 385 kts 278°
2026-05-04 04:09 35.93124 -6.91812 35161 ft 385 kts 278°
2026-05-04 04:10 35.93786 -6.95006 35492 ft 384 kts 278°
2026-05-04 04:10 35.94450 -6.98201 35812 ft 384 kts 278°
2026-05-04 04:10 35.95113 -7.01393 36116 ft 384 kts 278°
2026-05-04 04:10 35.95773 -7.04591 36410 ft 384 kts 278°
2026-05-04 04:11 35.96431 -7.07784 36671 ft 385 kts 278°
2026-05-04 04:11 35.97089 -7.10983 36961 ft 384 kts 278°
2026-05-04 04:11 35.97745 -7.14172 37295 ft 382 kts 278°
2026-05-04 04:11 35.98396 -7.17339 37640 ft 380 kts 278°
2026-05-04 04:12 35.98835 -7.19473 37851 ft 379 kts 278°
2026-05-04 04:12 35.99481 -7.22633 38008 ft 379 kts 278°
2026-05-04 04:12 36.00759 -7.28934 38042 ft 378 kts 278°
2026-05-04 04:13 36.02034 -7.35219 38045 ft 377 kts 278°
2026-05-04 04:13 36.02764 -7.41554 38047 ft 371 kts 268°
2026-05-04 04:14 36.02926 -7.47929 38045 ft 371 kts 268°
2026-05-04 04:14 36.03093 -7.54261 38044 ft 371 kts 268°
2026-05-04 04:15 36.03256 -7.60632 38041 ft 372 kts 268°
2026-05-04 04:15 36.03422 -7.67021 38041 ft 372 kts 268°
2026-05-04 04:16 36.03581 -7.73406 38045 ft 372 kts 268°
2026-05-04 04:16 36.03729 -7.79788 38045 ft 372 kts 268°
2026-05-04 04:17 36.03874 -7.86174 38045 ft 372 kts 268°
2026-05-04 04:17 36.04027 -7.92562 38043 ft 372 kts 268°
2026-05-04 04:18 36.04175 -7.98951 38042 ft 372 kts 268°
2026-05-04 04:18 36.04310 -8.05335 38044 ft 372 kts 268°
2026-05-04 04:19 36.04449 -8.11719 38044 ft 371 kts 268°
2026-05-04 04:19 36.04585 -8.18097 38045 ft 371 kts 268°
2026-05-04 04:20 36.04716 -8.24479 38046 ft 371 kts 268°
2026-05-04 04:20 36.04839 -8.30858 38047 ft 371 kts 268°
2026-05-04 04:21 36.04957 -8.37234 38049 ft 372 kts 268°
2026-05-04 04:21 36.05081 -8.43624 38049 ft 372 kts 268°
2026-05-04 04:22 36.05202 -8.50010 38050 ft 372 kts 268°
2026-05-04 04:22 36.05314 -8.56404 38052 ft 372 kts 268°
2026-05-04 04:23 36.05424 -8.62795 38055 ft 372 kts 268°
2026-05-04 04:23 36.05528 -8.69198 38059 ft 373 kts 268°
2026-05-04 04:24 36.05623 -8.75601 38062 ft 373 kts 268°
2026-05-04 04:24 36.05723 -8.82004 38067 ft 373 kts 268°
2026-05-04 04:25 36.05824 -8.88403 38067 ft 372 kts 268°
2026-05-04 04:25 36.05918 -8.94797 38067 ft 372 kts 268°
2026-05-04 04:26 36.06003 -9.01195 38068 ft 372 kts 268°
2026-05-04 04:26 36.06088 -9.07601 38067 ft 373 kts 268°
2026-05-04 04:27 36.06175 -9.14008 38067 ft 373 kts 268°
2026-05-04 04:27 36.06259 -9.20415 38069 ft 373 kts 268°
2026-05-04 04:28 36.06334 -9.26816 38068 ft 373 kts 268°
2026-05-04 04:28 36.06399 -9.33226 38070 ft 373 kts 268°
2026-05-04 04:29 36.06473 -9.39641 38071 ft 374 kts 268°
2026-05-04 04:29 36.06539 -9.46069 38072 ft 374 kts 268°
2026-05-04 04:30 36.06600 -9.52500 38075 ft 375 kts 268°
2026-05-04 04:30 36.06661 -9.58933 38076 ft 374 kts 268°
2026-05-04 04:31 36.06716 -9.65358 38078 ft 374 kts 268°
2026-05-04 04:31 36.06762 -9.71787 38077 ft 374 kts 268°
2026-05-04 04:32 36.06812 -9.78212 38081 ft 374 kts 268°
2026-05-04 04:32 36.06859 -9.84627 38077 ft 374 kts 268°
2026-05-04 04:33 36.06901 -9.91045 38075 ft 373 kts 268°
2026-05-04 04:33 36.07327 -9.97507 38116 ft 389 kts 282°
2026-05-04 04:34 36.08540 -10.00564 38171 ft 409 kts 303°
2026-05-04 04:34 36.10350 -10.03299 38296 ft 413 kts 302°
2026-05-04 04:34 36.12066 -10.06125 38477 ft 410 kts 298°
2026-05-04 04:34 36.13794 -10.08944 38681 ft 414 kts 302°
2026-05-04 04:35 36.15504 -10.11746 38680 ft 397 kts 290°
2026-05-04 04:35 36.16282 -10.14895 38610 ft 376 kts 269°
2026-05-04 04:35 36.15941 -10.18033 38541 ft 369 kts 251°
2026-05-04 04:35 36.15087 -10.21030 38467 ft 370 kts 250°
2026-05-04 04:36 36.14227 -10.24020 38118 ft 368 kts 250°
2026-05-04 04:36 36.13375 -10.26977 38055 ft 362 kts 250°
2026-05-04 04:36 36.11665 -10.32905 38073 ft 368 kts 250°
2026-05-04 04:37 36.08479 -10.44950 38067 ft 370 kts 265°
2026-05-04 04:38 36.08418 -10.51341 38072 ft 373 kts 267°
2026-05-04 04:38 36.08398 -10.57752 38073 ft 373 kts 267°
2026-05-04 04:39 36.08368 -10.64163 38073 ft 373 kts 267°
2026-05-04 04:39 36.08328 -10.70534 38078 ft 372 kts 267°
2026-05-04 04:40 36.08280 -10.76934 38073 ft 373 kts 267°
2026-05-04 04:40 36.08230 -10.83339 38073 ft 373 kts 267°
2026-05-04 04:41 36.08170 -10.89752 38074 ft 373 kts 267°
2026-05-04 04:41 36.08106 -10.96160 38094 ft 374 kts 267°
2026-05-04 04:42 36.08049 -11.02591 38095 ft 374 kts 267°
2026-05-04 04:42 36.07995 -11.09028 38098 ft 375 kts 267°
2026-05-04 04:43 36.07939 -11.15466 38100 ft 374 kts 267°
2026-05-04 04:43 36.07866 -11.21899 38101 ft 374 kts 267°
2026-05-04 04:44 36.07786 -11.28329 38104 ft 374 kts 267°
2026-05-04 04:44 36.07709 -11.34762 38103 ft 374 kts 267°
2026-05-04 04:45 36.07635 -11.41185 38102 ft 374 kts 267°
2026-05-04 04:47 36.07347 -11.63636 38104 ft 373 kts 267°
2026-05-04 04:47 36.07257 -11.70043 38104 ft 373 kts 267°
2026-05-04 04:48 36.07149 -11.76453 38103 ft 373 kts 267°
2026-05-04 04:49 36.06893 -11.92466 38108 ft 373 kts 267°
2026-05-04 04:49 36.06772 -11.98859 38105 ft 372 kts 266°
2026-05-04 04:50 36.06655 -12.05255 38102 ft 372 kts 267°
2026-05-04 04:50 36.06535 -12.11642 38104 ft 372 kts 267°
2026-05-04 04:51 36.06422 -12.18040 38102 ft 372 kts 267°
2026-05-04 04:51 36.06301 -12.24391 38099 ft 372 kts 266°
2026-05-04 04:52 36.06170 -12.30821 38095 ft 372 kts 267°
2026-05-04 04:52 36.06031 -12.37207 38095 ft 372 kts 266°
2026-05-04 04:53 36.05891 -12.43560 38092 ft 372 kts 266°
2026-05-04 04:53 36.05763 -12.49956 38093 ft 372 kts 266°
2026-05-04 04:54 36.04603 -12.56139 38098 ft 373 kts 246°
2026-05-04 04:54 36.01537 -12.61330 38097 ft 379 kts 232°
2026-05-04 04:55 35.97968 -12.66131 38093 ft 379 kts 232°
2026-05-04 04:55 35.94412 -12.70935 38100 ft 379 kts 232°
2026-05-04 04:56 35.91434 -12.74954 38104 ft 379 kts 232°
2026-05-04 04:56 35.87875 -12.79738 38105 ft 378 kts 232°
2026-05-04 04:57 35.84318 -12.84514 38103 ft 378 kts 232°
2026-05-04 04:57 35.80758 -12.89285 38105 ft 378 kts 232°
2026-05-04 04:58 35.77201 -12.94051 38106 ft 378 kts 232°
2026-05-04 04:58 35.73643 -12.98803 38102 ft 377 kts 232°
2026-05-04 04:59 35.70085 -13.03558 38104 ft 378 kts 232°
2026-05-04 04:59 35.66537 -13.08278 38099 ft 378 kts 232°
2026-05-04 05:00 35.62950 -13.13053 38103 ft 378 kts 232°
2026-05-04 05:01 35.57602 -13.20173 38102 ft 378 kts 232°
2026-05-04 05:01 35.54027 -13.24911 38097 ft 378 kts 232°
2026-05-04 05:02 35.50471 -13.29621 38100 ft 379 kts 232°
2026-05-04 05:02 35.46888 -13.34362 38095 ft 379 kts 232°
2026-05-04 05:03 35.43295 -13.39102 38097 ft 380 kts 232°
2026-05-04 05:04 35.36109 -13.48586 38098 ft 379 kts 232°
2026-05-04 05:04 35.32514 -13.53313 38102 ft 379 kts 232°
2026-05-04 05:06 35.18106 -13.72186 38100 ft 380 kts 232°
2026-05-04 05:07 35.14500 -13.76892 38105 ft 379 kts 232°
2026-05-04 05:07 35.10896 -13.81592 38106 ft 379 kts 231°
2026-05-04 05:09 34.94693 -14.02662 38104 ft 378 kts 231°
2026-05-04 05:10 34.91085 -14.07321 38104 ft 378 kts 231°
2026-05-04 05:10 34.87473 -14.11986 38100 ft 379 kts 231°
2026-05-04 05:11 34.83857 -14.16648 38104 ft 378 kts 231°
2026-05-04 05:11 34.80237 -14.21304 38107 ft 378 kts 231°
2026-05-04 05:12 34.76623 -14.25956 38102 ft 378 kts 231°
2026-05-04 05:12 34.73015 -14.30607 38103 ft 378 kts 231°
2026-05-04 05:13 34.69402 -14.35261 38104 ft 378 kts 231°
2026-05-04 05:13 34.65780 -14.39897 38108 ft 378 kts 231°
2026-05-04 05:14 34.62158 -14.44540 38105 ft 378 kts 231°
2026-05-04 05:14 34.58535 -14.49167 38107 ft 378 kts 231°
2026-05-04 05:15 34.54910 -14.53792 38106 ft 378 kts 231°
2026-05-04 05:15 34.51290 -14.58410 38108 ft 378 kts 231°
2026-05-04 05:16 34.47678 -14.63025 38108 ft 378 kts 231°
2026-05-04 05:16 34.44053 -14.67630 38103 ft 378 kts 231°
2026-05-04 05:17 34.40424 -14.72233 38105 ft 377 kts 231°
2026-05-04 05:17 34.36801 -14.76825 38102 ft 377 kts 231°
2026-05-04 05:18 34.33169 -14.81421 38102 ft 378 kts 231°
2026-05-04 05:18 34.29535 -14.86019 38099 ft 378 kts 231°
2026-05-04 05:19 34.25938 -14.90565 38100 ft 378 kts 231°
2026-05-04 05:19 34.22349 -14.95102 38099 ft 378 kts 231°
2026-05-04 05:20 34.18699 -14.99690 38102 ft 379 kts 231°
2026-05-04 05:20 34.15049 -15.04281 38104 ft 379 kts 231°
2026-05-04 05:21 34.11397 -15.08873 38101 ft 379 kts 230°
2026-05-04 05:21 34.07736 -15.13468 37729 ft 378 kts 230°
2026-05-04 05:22 34.05916 -15.15745 37204 ft 376 kts 230°
2026-05-04 05:22 34.04103 -15.18011 36596 ft 376 kts 231°
2026-05-04 05:22 34.02284 -15.20285 35961 ft 377 kts 231°
2026-05-04 05:22 34.00469 -15.22558 35308 ft 377 kts 231°
2026-05-04 05:23 33.98641 -15.24850 34588 ft 380 kts 231°
2026-05-04 05:23 33.96807 -15.27149 33834 ft 383 kts 231°
2026-05-04 05:23 33.94954 -15.29469 33075 ft 386 kts 231°
2026-05-04 05:23 33.93100 -15.31778 32634 ft 381 kts 231°
2026-05-04 05:24 33.91266 -15.34058 32130 ft 377 kts 230°
2026-05-04 05:24 33.89454 -15.36314 31633 ft 373 kts 230°
2026-05-04 05:24 33.87663 -15.38549 31140 ft 370 kts 231°
2026-05-04 05:24 33.85886 -15.40765 30659 ft 366 kts 230°
2026-05-04 05:25 33.84125 -15.42960 30183 ft 363 kts 230°
2026-05-04 05:25 33.82379 -15.45130 29710 ft 359 kts 230°
2026-05-04 05:25 33.80651 -15.47271 29241 ft 355 kts 230°
2026-05-04 05:25 33.78934 -15.49395 28765 ft 352 kts 230°
2026-05-04 05:26 33.77241 -15.51492 28326 ft 348 kts 230°
2026-05-04 05:26 33.75568 -15.53573 27882 ft 344 kts 230°
2026-05-04 05:26 33.73907 -15.55637 27436 ft 342 kts 230°
2026-05-04 05:26 33.72259 -15.57685 27011 ft 341 kts 230°
2026-05-04 05:27 33.70615 -15.59723 26580 ft 339 kts 230°
2026-05-04 05:28 33.59284 -15.73697 23770 ft 329 kts 230°
2026-05-04 05:29 33.57693 -15.75662 23376 ft 328 kts 230°
2026-05-04 05:29 33.56130 -15.77593 22942 ft 326 kts 230°
2026-05-04 05:29 33.54520 -15.79558 22506 ft 325 kts 229°
2026-05-04 05:29 33.52918 -15.81458 22073 ft 324 kts 228°
2026-05-04 05:31 33.41807 -15.94405 19003 ft 314 kts 227°
2026-05-04 05:31 33.40243 -15.96229 18562 ft 313 kts 227°
2026-05-04 05:32 33.38715 -15.98010 18139 ft 312 kts 227°
2026-05-04 05:32 33.37165 -15.99818 17710 ft 311 kts 227°
2026-05-04 05:32 33.35622 -16.01619 17278 ft 310 kts 227°
2026-05-04 05:33 33.32547 -16.05206 16439 ft 307 kts 227°
2026-05-04 05:33 33.31023 -16.06984 16030 ft 306 kts 227°
2026-05-04 05:33 33.29506 -16.08752 15625 ft 304 kts 227°
2026-05-04 05:33 33.27997 -16.10513 15210 ft 302 kts 227°
2026-05-04 05:34 33.26491 -16.12263 14804 ft 301 kts 227°
2026-05-04 05:34 33.24996 -16.14001 14398 ft 299 kts 227°
2026-05-04 05:34 33.23508 -16.15731 13993 ft 298 kts 227°
2026-05-04 05:34 33.22024 -16.17457 13589 ft 297 kts 227°
2026-05-04 05:35 33.20547 -16.19175 13174 ft 296 kts 227°
2026-05-04 05:35 33.19073 -16.20887 12752 ft 295 kts 227°
2026-05-04 05:35 33.17603 -16.22594 12348 ft 294 kts 227°
2026-05-04 05:35 33.16143 -16.24286 11933 ft 293 kts 227°
2026-05-04 05:36 33.14682 -16.25976 11521 ft 292 kts 227°
2026-05-04 05:36 33.13226 -16.27659 11117 ft 291 kts 226°
2026-05-04 05:36 33.11773 -16.29337 10688 ft 290 kts 226°
2026-05-04 05:36 33.10329 -16.31006 10298 ft 288 kts 226°
2026-05-04 05:37 33.08907 -16.32650 10046 ft 283 kts 226°
2026-05-04 05:37 33.07497 -16.34281 9904 ft 282 kts 226°
2026-05-04 05:37 33.06087 -16.35912 9776 ft 282 kts 226°
2026-05-04 05:38 33.03263 -16.39177 8970 ft 282 kts 225°
2026-05-04 05:38 33.01853 -16.40805 8501 ft 283 kts 225°
2026-05-04 05:38 33.00918 -16.41885 8189 ft 283 kts 225°
2026-05-04 05:38 32.99510 -16.43514 7798 ft 281 kts 225°
2026-05-04 05:39 32.98106 -16.45135 7362 ft 280 kts 225°
2026-05-04 05:39 32.95320 -16.48339 6560 ft 275 kts 225°
2026-05-04 05:39 32.93945 -16.49919 6131 ft 274 kts 225°
2026-05-04 05:40 32.91179 -16.53025 5218 ft 274 kts 223°
2026-05-04 05:40 32.89735 -16.54565 4506 ft 283 kts 222°
2026-05-04 05:40 32.88265 -16.56119 4194 ft 277 kts 221°
2026-05-04 05:41 32.86864 -16.57596 4124 ft 262 kts 221°
2026-05-04 05:41 32.85534 -16.59005 4022 ft 250 kts 221°
2026-05-04 05:41 32.84253 -16.60366 3713 ft 248 kts 222°
2026-05-04 05:41 32.82968 -16.61737 3359 ft 248 kts 222°
2026-05-04 05:42 32.81681 -16.63110 2988 ft 249 kts 222°
2026-05-04 05:42 32.80390 -16.64481 2648 ft 249 kts 221°
2026-05-04 05:42 32.79106 -16.65845 2363 ft 246 kts 220°
2026-05-04 05:42 32.77751 -16.67057 2088 ft 242 kts 215°
2026-05-04 05:43 32.76378 -16.68182 1945 ft 233 kts 211°
2026-05-04 05:43 32.74960 -16.68924 1988 ft 212 kts 194°
2026-05-04 05:43 32.73620 -16.69217 1987 ft 180 kts 187°
2026-05-04 05:45 32.66545 -16.70015 1982 ft 141 kts 183°
2026-05-04 05:45 32.65566 -16.70097 1978 ft 141 kts 184°
2026-05-04 05:47 32.61343 -16.75422 1183 ft 138 kts 256°
2026-05-04 05:47 32.61162 -16.76543 1183 ft 138 kts 264°
2026-05-04 05:47 32.61217 -16.77675 1179 ft 138 kts 282°
2026-05-04 05:48 32.61566 -16.78731 1179 ft 137 kts 302°
2026-05-04 05:48 32.62190 -16.79572 1165 ft 136 kts 323°
2026-05-04 05:48 32.63024 -16.80090 1158 ft 137 kts 342°
2026-05-04 05:48 32.63948 -16.80363 1264 ft 137 kts 352°
2026-05-04 05:49 32.64897 -16.80444 1265 ft 137 kts 360°
2026-05-04 05:49 32.65846 -16.80438 1047 ft 136 kts
2026-05-04 05:49 32.66769 -16.80262 814 ft 134 kts 15°
2026-05-04 05:49 32.67637 -16.79864 569 ft 134 kts 30°
2026-05-04 05:51 32.69875 -16.77175 177 ft 7 kts 182°
2026-05-04 05:51 32.69823 -16.77197 177 ft 9 kts 216°
2026-05-04 05:52 32.69771 -16.77260 177 ft 16 kts 227°
2026-05-04 05:52 32.69688 -16.77369 177 ft 17 kts 230°
2026-05-04 05:52 32.69617 -16.77455 176 ft 14 kts 222°
2026-05-04 05:52 32.69576 -16.77503 176 ft 6 kts 226°
2026-05-04 05:53 32.69547 -16.77528 176 ft 4 kts 190°
2026-05-04 05:54 32.69490 -16.77478 177 ft 0 kts 138°